User: anonymous   Login
Location: Wellington
(41.3000°S, 174.7830°E)
Time: 21:07:56
(UTC+12:00)
Language:

Spot 2 Rocket - Orbit

View from above orbital plane
View from above orbital plane
View from above satellite
View from above satellite

Ground track
Ground track

The orbit data is extracted from the following two-line orbital elements,

1 20443U 90005H   19139.17452140  .00000005  00000-0  16464-4 0  9994
2 20443  98.6280 195.4063 0011642  81.7120 278.5387 14.38060581535569
Epoch (UTC): 19 May 2019 04:11:18
Eccentricity: 0.0011642
inclination: 98.6280°
perigee height: 756 km
apogee height: 773 km
right ascension of ascending node: 195.4063°
argument of perigee: 81.7120°
revolutions per day: 14.38060581
mean anomaly at epoch: 278.5387°
orbit number at epoch: 53556

The dashed part of the orbit path shows where the satellite is in the earth's shadow,  

DLR